Location: Newark
(51.0089°N, 21.5817°E)
Time: 21:46:48
(UTC+00:00)

STARS - Visible Passes

Search period start: 21 February 2020 00:00
Search period end: 02 March 2020 00:00
Orbit: 623 x 641 km, 98.3° (Epoch: 21 February)

Date Brightness Start Highest point End Pass type
(mag) Time Alt. Az. Time Alt. Az. Time Alt. Az.
22 Feb ? 04:27:03 10° E 04:29:19 14° NE 04:31:35 10° NNE visible
23 Feb ? 04:46:53 10° ESE 04:50:04 20° ENE 04:53:14 10° NNE visible
26 Feb ? 04:15:54 10° ENE 04:17:09 11° NE 04:18:24 10° NE visible
27 Feb ? 04:35:13 10° E 04:37:52 16° ENE 04:40:31 10° NNE visible
